Regional Weather Roundup
Issued by NWS

Home | Current Version | Previous Version | Text Only | Print | Product List | Glossary Off
Versions: 1 2 3 4 5 6 7 8 9 10 11 12 13 14 15 16 17 18 19 20 21 22 23 24 25 26 27 28 29 30 31 32 33 34 35 36 37 38 39 40 41 42 43 44 45 46 47 48 49 50

307
ASUS45 KBOU 290507
RWRCO

WEATHER ROUNDUP FOR COLORADO
NATIONAL WEATHER SERVICE DENVER/BOULDER CO
1100 PM MDT THU APR 28 2016

NOTE: "FAIR" INDICATES FEW OR NO CLOUDS BELOW 12000 FEET WITH NO
SIGNIFICANT WEATHER AND/OR OBSTRUCTIONS TO VISIBILITY.

COZ001>005-013-030-031-290600-
...NORTHWEST COLORADO...

CITY           SKY/WX    TMP DP  RH WIND       PRES   REMARKS
CRAIG          CLOUDY    35  33  92 W6        29.94R WCI  30
HAYDEN         FAIR      34  30  86 CALM      29.92S
MEEKER         FAIR      40  34  79 NE6       29.89F
MOUNT WERNER   NOT AVBL
STEAMBOAT SPGS FAIR      32  31  96 CALM      29.92S
WALDEN         MOCLDY    28  25  86 NW5       29.97S WCI  23
$$

COZ006>008-011-290600-
...WEST CENTRAL VALLEYS...

CITY           SKY/WX    TMP DP  RH WIND       PRES   REMARKS
GRAND JUNCTION FAIR      47  38  71 CALM      29.80S
MONTROSE       FAIR      44  37  76 SE9       29.86S
EAGLE          CLOUDY    43  37  81 CALM      29.91F
RIFLE          LGT RAIN  46  39  76 CALM      29.86R
DELTA          NOT AVBL
NUCLA          NOT AVBL
$$

COZ017>023-064>068-290600-
...SOUTHWEST COLORADO...

CITY           SKY/WX    TMP DP  RH WIND       PRES   REMARKS
DURANGO        CLOUDY    42  26  53 N6        29.85S
CORTEZ         FAIR      35  30  82 CALM      29.84S
PAGOSA SPRINGS CLOUDY    45  17  33 E6        29.88S
TELLURIDE      CLOUDY    36  25  65 E5        29.92F
WOLF CREEK PAS NOT AVBL
$$

COZ009-010-012-014-032>034-037-058>063-290600-
...CENTRAL COLORADO...

CITY           SKY/WX    TMP DP  RH WIND       PRES   REMARKS
ASPEN          FAIR      38  31  76 CALM      29.88F
BUENA VISTA    LGT SNOW  31  30  96 SE5       29.99S WCI  26
COPPER MTN     NOT AVBL
BERTHOUD PASS  HAZE      18   9  68 SE18G24   30.03S VSB<1/4 WCI   2
COTTONWOOD PAS LGT SNOW  32  30  93 E5        30.01R VSB 1   WCI  27
GUNNISON       FAIR      39  30  70 N9        29.90F
KREMMLING      LGT RAIN  36  32  87 CALM      29.96R
LEADVILLE      FOG       26  26 100 S8        29.97S VSB 1/4 WCI  18
MONARCH PASS   FOG       21  19  93 E14       30.10F VSB 1/4 WCI   8
SALIDA         CLOUDY    33  32  96 SE6       30.07S WCI  27
SUNLIGHT       CLOUDY    32  30  93 NE3       29.98F
WILKERSON PASS LGT SNOW  23  21  93 S5        30.05S VSB 3/4 WCI  17
$$

COZ069>075-290600-
...SAN LUIS VALLEY/SANGRE DE CRISTO MOUNTAINS...

CITY           SKY/WX    TMP DP  RH WIND       PRES   REMARKS
ALAMOSA        RAIN      38  36  92 NE3       29.92R
LA VETA PASS   LGT SNOW  27  23  86 MISG      29.99F VSB 3/4
SAGUACHE       LGT RAIN  36  34  93 NW9       29.94F
$$

COZ035-036-038>040-290600-
...NORTHERN COLORADO FRONT RANGE...

CITY           SKY/WX    TMP DP  RH WIND       PRES   REMARKS
DENVER INTL AP FLURRIES  37  32  82 E10       30.04S
DMNS CITY PARK   N/A     38  37  96 E6        30.04F
AURORA         CLOUDY    37  36  97 E7        30.04F
FRONT RANGE AP NOT AVBL
ERIE MUNI ARPT DRIZZLE   37  37  97 NE3       30.05F
BOULDER MUN AP DRIZZLE   36  36 100 NE3       30.05F
CENTENNIAL     DRIZZLE   37  34  89 SE6       30.03S
BROOMFIELD     NOT AVBL
FORT COLLINS   MOCLDY    37  34  87 SE5       30.05F
LONGMONT       LGT SNOW  39  37  93 E6        30.07F
$$

COZ041-046-047-076>085-087-088-290600-
...PIKES PEAK/PALMER DIVIDE AND SOUTHERN FOOTHILLS...

CITY           SKY/WX    TMP DP  RH WIND       PRES   REMARKS
COLO. SPRINGS  LGT SNOW  33  32  96 CALM      30.05R FOG
A. F. ACADEMY  LGT SNOW  32  32 100 S2        30.03S FOG
SCHRIEVER AFB  NOT AVBL
ELLICOTT       NOT AVBL
FALCON         LGT SNOW  32  32  99 MISG      30.04S VSB 1
FORT CARSON    LGT RAIN  35  34  96 N5        30.04R WCI  31
LIMON          CLOUDY    37  33  85 NE10      30.04F
MONUMENT HILL  LGT SNOW  32  30  93 E7        30.04S WCI  26
TRINIDAD       LGT RAIN  39  37  92 E8        29.99F
$$

COZ042>045-048>051-090-091-290600-
...NORTHEAST COLORADO...

CITY           SKY/WX    TMP DP  RH WIND       PRES   REMARKS
GREELEY ARPT   CLOUDY    37  36  93 E7        30.06F
AKRON          CLOUDY    37  34  89 E9        30.07R
BURLINGTON     CLOUDY    42  36  79 NE13      30.06S
WRAY           NOT AVBL
STERLING       CLOUDY    41  34  75 E6        30.06F
HOLYOKE        NOT AVBL
FORT MORGAN    CLOUDY    38  33  82 E7        30.08R
$$

COZ086-089-092>099-290600-
...SOUTHEAST COLORADO...

CITY           SKY/WX    TMP DP  RH WIND       PRES   REMARKS
PUEBLO         LGT RAIN  42  39  89 W7        30.02F FOG
LA JUNTA       LGT RAIN  45  40  82 E7        30.01R
LAMAR          LGT RAIN  45  42  89 E12       30.00S
SPRINGFIELD      N/A     42  39  89 NE20      29.98R
$$




USA.gov is the U.S. government's official web portal to all federal, state and local government web resources and services.